www.pogodaiklimat.ru

Погода и климат >> Архив погоды >> Австралия >> Северная территория >> Ладжаману


ПОГОДА в Ладжаману

  • Прогноз погоды в Ладжаману
  • Монитор погоды в Ладжаману

АРХИВ ПОГОДЫ в Ладжаману

Время (UTC), дата Ветер
(напр.,м/с)
 
Видим.   Явления Облачность Т
(С)
Тd
(С)
f
(%)
Тe
(С)
Тes
(С)
Комфортность P
(гПа)
Po
(гПа)
Тmin
(С)
Tmax
(С)
R
(мм)
R24
(мм)
S
(см)
02 13.06 В 4 н/о н/о +31.4 +10.7 28 +31 +31 жарко 1015.9 979.2 +21.0
05 13.06 ЮВ 4 н/о н/о +33.8 +10.4 24 +33 +33 жарко 1012.6 976.0
08 13.06 В 2 н/о н/о +33.4 +10.1 24 +33 +33 жарко 1012.5 975.9
11 13.06 В 3 н/о н/о +26.8 +10.5 36 +28 +28 жарко 1014.6 977.9
14 13.06 СВ 3 н/о н/о +25.6 +11.0 40 +27 +27 жарко 1014.8 978.1 +34.9
17 13.06 ЮВ 2 н/о н/о +20.7 +11.1 54 +23 +23 комфорт 1014.2 977.5
20 13.06 В 2 н/о н/о +20.7 +11.3 55 +23 +23 комфорт 1014.2 977.5
23 13.06 СВ 3 н/о н/о +24.4 +12.0 46 +26 +26 жарко 1016.2 979.5
02 14.06 В 6 н/о н/о +30.1 +10.6 30 +30 +30 жарко 1016.0 979.3 +19.2
05 14.06 СВ 3 н/о н/о +32.5 +9.9 25 +32 +32 жарко 1013.0 976.4
08 14.06 ЮВ 3 н/о н/о +31.8 +9.9 26 +31 +31 жарко 1012.3 975.7
11 14.06 В 2 н/о н/о +25.3 +10.4 39 +26 +26 жарко 1014.4 977.7
14 14.06 В 3 н/о н/о +23.8 +11.2 45 +25 +25 комфорт 1014.6 977.9 +33.8
17 14.06 В 4 н/о н/о +22.4 +10.9 48 +24 +24 комфорт 1013.9 977.2
20 14.06 В 3 н/о н/о +21.5 +10.9 51 +23 +23 комфорт 1014.4 977.7
23 14.06 В 5 н/о н/о +23.6 +9.6 41 +25 +25 комфорт 1016.5 979.7
02 15.06 СВ 6 н/о н/о +29.7 +9.3 28 +29 +29 жарко 1016.2 979.5 +20.3
05 15.06 СВ 5 н/о н/о +32.3 +8.5 23 +31 +31 жарко 1013.4 976.8
08 15.06 СВ 3 н/о н/о +31.7 +8.0 23 +31 +31 жарко 1012.8 976.2
11 15.06 СВ 3 н/о н/о +26.3 +8.3 32 +26 +26 жарко 1014.2 977.5
14 15.06 СВ 3 н/о н/о +23.7 +8.6 38 +24 +24 комфорт 1014.5 977.8 +33.2
17 15.06 СВ 5 н/о н/о +23.7 +8.6 38 +24 +24 комфорт 1013.3 976.7
20 15.06 СВ 2 н/о н/о +20.9 +8.2 44 +23 +23 комфорт 1014.0 977.3
23 15.06 ЮВ 4 н/о н/о +22.2 +9.0 43 +24 +24 комфорт 1017.3 980.5
02 16.06 В 6 н/о н/о +28.5 +6.6 25 +28 +28 жарко 1017.0 980.2 +18.4
05 16.06 СВ 3 н/о н/о +31.6 +6.6 21 +30 +30 жарко 1014.1 977.4
08 16.06 В 3 н/о н/о +31.0 +5.4 20 +29 +29 жарко 1013.4 976.8
11 16.06 В 3 н/о н/о +26.5 +7.0 29 +26 +26 жарко 1015.3 978.6
14 16.06 В 3 н/о н/о +24.1 +7.3 34 +24 +24 комфорт 1015.9 979.2 +33.1
17 16.06 В 5 н/о н/о +22.0 +8.2 41 +23 +23 комфорт 1015.1 978.4
20 16.06 В 4 н/о н/о +18.8 +8.2 50 +19 +19 1016.1 979.4
23 16.06 В 4 н/о н/о +21.2 +8.5 44 +22 +22 комфорт 1018.8 982.0
02 17.06 В 5 н/о н/о +26.3 +8.8 33 +27 +27 жарко 1018.7 981.9 +17.7
05 17.06 В 5 н/о н/о +29.5 +8.0 26 +29 +29 жарко 1015.4 978.7
08 17.06 В 4 н/о н/о +28.7 +7.3 26 +28 +28 жарко 1014.9 978.2
11 17.06 ЮВ 2 н/о н/о +22.1 +7.1 38 +23 +23 комфорт 1016.9 980.1
14 17.06 ЮВ 3 н/о н/о +19.3 +6.8 44 +20 +20 1017.7 980.9 +30.4
17 17.06 В 3 н/о н/о +18.8 +6.3 44 +19 +19 1017.5 980.7
20 17.06 В 4 н/о н/о +17.8 +4.0 40 +18 +18 1017.7 980.9
23 17.06 В 7 н/о н/о +18.7 +1.2 31 +18 +18 1019.3 982.4
02 18.06 В 7 н/о н/о +24.3 -0.1 20 +23 +23 комфорт 1019.8 982.9 +16.6
05 18.06 В 6 н/о н/о +27.7 -0.4 16 +25 +25 комфорт 1016.0 979.3
08 18.06 В 5 н/о н/о +26.7 +0.4 18 +25 +25 комфорт 1015.9 979.2
11 18.06 ЮВ 4 н/о н/о +21.6 +1.8 27 +21 +21 комфорт 1017.8 981.0
14 18.06 ЮВ 4 н/о н/о +18.9 +1.0 30 +19 +19 1018.9 982.1 +28.8
17 18.06 В 5 н/о н/о +17.2 -1.0 29 +17 +17 1018.3 981.5
20 18.06 В 5 н/о н/о +15.6 -2.8 28 +15 +15 1018.8 982.0
23 18.06 В 5 н/о н/о +16.3 -1.7 29 +15 +15 1020.6 983.7
02 19.06 В 7 н/о н/о +21.4 -0.6 23 +21 +21 комфорт 1020.4 983.5 +14.1
05 19.06 В 7 н/о н/о +24.4 -1.4 18 +23 +23 комфорт 1016.9 980.1
08 19.06 ЮВ 7 н/о н/о +23.5 -2.9 17 +22 +22 комфорт 1016.4 979.6
11 19.06 ЮВ 3 н/о н/о +18.7 -2.8 23 +19 +19 1018.1 981.3
14 19.06 ЮВ 4 н/о н/о +16.5 -3.0 26 +16 +16 1019.2 982.3 +25.6
17 19.06 В 4 н/о н/о +14.7 -2.7 30 +14 +14 1019.4 982.5
20 19.06 В 3 н/о н/о +12.7 -2.0 36 +12 +12 1019.6 982.7
23 19.06 В 4 н/о н/о +14.2 -1.4 34 +13 +13 1021.5 984.6

 

Местоположение метеостанции Ладжаману (Северная территория, Австралия): широта -18.33 долгота 130.63 высота над уровнем моря 317 м.

В архиве по умолчанию представлена погода в Ладжаману за последнюю неделю. Архивные данные за месяц целиком и за предыдущие месяцы, начиная с января 2011 года, Вы можете получить, выбрав интересующий диапазон дат из раскрывающегося списка и нажав кнопку "Ввод!".


*Определитесь, кто Вы:
робот инопланетянин человек

Внимание! Время в таблицах - всемирное. Для получения местного времени необходимо прибавить поправку, которая равна 9.5 ч.

Смотрите также архив погоды в соседних городах и на ближайших метеорологических станциях:

Погода в Раббит Флат (Северная территория, Австралия) (216 км)
Погода в Виктория-Ривер (Северная территория, Австралия) (219 км)
Погода в Аэропорту Аргайл (Западная Австралия, Австралия) (299 км)
Погода в Холс Крик (Западная Австралия, Австралия) (314 км)
Погода на Базе ВВС Delamere Weapons Range (Северная территория, Австралия) (318 км)
Погода в Кунунарре (Западная Австралия, Австралия) (349 км)
Погода в Дейли Уотерс (Северная территория, Австралия) (372 км)
Погода в Манбуллу Ксиро (Северная территория, Австралия) (376 км)
Погода в Теннант-Крике (Северная территория, Австралия) (400 км)
Погода в Уиндеме (Западная Австралия, Австралия) (411 км)

Пояснения к столбцам:

Ветер - указаны скорость ветра в м/с - средняя за 10 мин, порывы в срок и между сроками (в фигурных скобках) и направление, откуда дует ветер: С - северный, СВ - северо-восточный, В - восточный, ЮВ - юго-восточный, Ю - южный, ЮЗ - юго-западный, З - западный, СЗ - северо-западный.
Видимость - горизонтальная дальность видимости в метрах или километрах. При видимости от 1 до 10 км при отсутствии осадков обычно наблюдается дымка, при ухудшении видимости до 1 км и менее - туман. В сухую погоду видимость может ухудшаться дымом, пылью или мглою.
Явления - указаны атмосферные явления, наблюдавшиеся в срок или в последний час перед сроком; фигурными скобками обозначены явления, наблюдавшиеся между сроками (за 1-3 часа до срока); квадратными скобками обозначены град или гололедные отложения с указанием их диаметра в мм.
Облачность - указаны через наклонную черту общая и нижняя облачность в баллах и высота нижней границы облаков в метрах; квадратными скобками обозначены формы облаков: Ci - перистые, Cs - перисто-слоистые, Cc - перисто-кучевые, Ac - высококучевые, As - высокослоистые, Sc - слоисто-кучевые, Ns - слоисто-дождевые, Cu - кучевые, Cb - кучево-дождевые. Подробнее классификацию облаков см. в Атласе облаков (PDF).
T - Температура воздуха - температура, измеренная на высоте 2 м над землей.
Td - Температура точки росы - температура, при понижении до которой содержащийся в воздухе водяной пар достигнет насыщения.
f - Относительная влажность воздуха - влажноcть воздуха, измеренная на высоте 2 м над землей.
Te - Эффективная температура - температура, которую ощущает одетый по сезону человек в тени. Характеристика душности погоды. При расчете учитывается влияние влажности воздуха и скорости ветра на теплоощущения человека.
Tes - Эффективная температура на солнце - температура, которую ощущает человек, с поправкой на солнечный нагрев. Характеристика знойности погоды. Зависит от высоты солнца над горизонтом, облачности и скорости ветра. Ночью, в пасмурную погоду, а также при ветре 12 м/с и более поправка равна нулю.
P - Атмосферное давление - приведенное к уровню моря атмосферное давление.
Po - Атмосферное давление - измеренное на уровне метеостанции атмосферное давление.
Tmin - Минимальная температура - минимум температуры воздуха на высоте 2 м над землей.
Tmax - Максимальная температура - максимум температуры воздуха на высоте 2 м над землей.
R - Количество осадков - Количество выпавших осадков за период времени, мм. При наведении курсора мыши на число - период времени, за который выпало указанное количество осадков.
R24 - Количество осадков - Количество выпавших осадков за 24 часа, мм.
S - Снежный покров - Высота снежного покрова, см. При наведении курсора мыши на число - состояние снежного покрова и степень покрытия местности в баллах.